Starlink 31177

operational
NORAD ID: 58873 Int'l Des: 2024-019 Owner: SPXS Country: US Constellation: starlink
LEOCIRCULAR

About Starlink 31177

Description loading...

Live Position

Loading 3D Globe...

Upcoming Passes

Altitude History

Altitude vs Time

uPlot chart will show altitude changes over time

Two-Line Element Set

1 58873U 24019W 25351.29032738 -.00000854 00000-0 -21506-4 0 9994
2 58873 42.9999 353.9946 0001643 267.1646 92.9018 15.27593038106481
Epoch: Dec 17, 2025 • Age: 12 hours

Current Status

Altitude 490.0 km
Velocity 7.62 km/s
Sub-Earth Point -29.31°S, 62.2°W
Launch Date Jan 29, 2024
Age 1.8 years
Type internet

Technical Details

Classification Payload
Mass 730.00 kg
Dry Mass 700.00 kg
Total Mass 730.00 kg
Length 0.30 m
Diameter 4.10 m
Span 29.00 m
Shape Box + pan
Manufacturer SPXS
Bus Type Starlink V2M
Phase Status In Orbit
Owner/State SPXS/US

Large Constellations

Loading constellations...